Weather History for KDMN - October, 2012

Change the Weather History Date:

Saturday, October 6, 2012

  Actual Average Record
Temperature  
Mean Temperature 68 °F 66 °F  
Max Temperature 85 °F 81 °F 95 °F (1956)
Min Temperature 54 °F 50 °F 37 °F (2013)
Cooling Degree Days 4    
Growing Degree Days 18 (Base 50)    
Moisture  
Dew Point 28 °F    
Average Humidity 26    
Maximum Humidity 38    
Minimum Humidity 13    
Precipitation  
Precipitation 0.00 in 0.04 in 0.67 in (1957)
Month to date precipitation 0.00 0.22  
Year to date precipitation 3.71 9.11  
Sea Level Pressure  
Sea Level Pressure 29.85 in    
Wind  
Wind Speed 7 mph (West)    
Max Wind Speed 18 mph    
Max Gust Speed 26 mph    
Visibility 10 miles    
Events      
T = Trace of Precipitation, MM = Missing Value Source: NWS Daily Summary

Daily Weather History Graph

Daily Weather History Graph

Search for Another Location

Airport or City:

Trip Planner

Search our weather history database for the weather conditions in past years. The results will help you decide how hot, cold, wet, or windy it might be!

Date:

Astronomy

Oct. 06, 2012 Rise Set
Actual Time 7:08 AM MDT 6:48 PM MDT
Civil Twilight 6:44 AM MDT 7:13 PM MDT
Nautical Twilight 6:15 AM MDT 7:41 PM MDT
Astronomical Twilight 5:47 AM MDT 8:09 PM MDT
Moon 11:21 PM MDT (10/6) 12:50 PM MDT (10/6)
Length of Visible Light 12h 28m
Length of Day
11h 39m
Waning Gibbous, 65% of the Moon is Illuminated
Oct 6
Waning Gibbous
Oct 8
Last Quarter
Oct 15
New
Oct 21
First Quarter
Oct 29
Full

Hourly Weather History & Observations

Time (MDT) Temp. Dew Point Humidity Pressure Visibility Wind Dir Wind Speed Gust Speed Precip Events Conditions
12:53 AM 61.0 °F 24.1 °F 24% 29.87 in 10.0 mi WNW 8.1 mph - N/A   Clear
1:53 AM 59.0 °F 26.1 °F 28% 29.88 in 10.0 mi West 6.9 mph - N/A   Clear
2:53 AM 57.0 °F 27.0 °F 32% 29.87 in 10.0 mi Calm Calm - N/A   Clear
3:53 AM 57.0 °F 28.0 °F 33% 29.86 in 10.0 mi WSW 8.1 mph - N/A   Clear
4:53 AM 60.1 °F 28.0 °F 30% 29.86 in 10.0 mi West 8.1 mph - N/A   Clear
5:53 AM 57.0 °F 28.9 °F 34% 29.88 in 10.0 mi West 8.1 mph - N/A   Clear
6:53 AM 55.0 °F 30.0 °F 38% 29.91 in 10.0 mi West 6.9 mph - N/A   Clear
8:53 AM 63.0 °F 30.9 °F 30% 29.94 in 10.0 mi Calm Calm - N/A   Clear
9:53 AM 64.0 °F 32.0 °F 30% 29.95 in 10.0 mi SSW 3.5 mph - N/A   Clear
10:53 AM 75.9 °F 30.9 °F 19% 29.91 in 10.0 mi West 5.8 mph - N/A   Clear
11:53 AM 80.1 °F 30.0 °F 16% 29.88 in 10.0 mi Variable 5.8 mph - N/A   Clear
12:53 PM 81.0 °F 28.0 °F 14% 29.85 in 10.0 mi WSW 13.8 mph - N/A   Clear
1:53 PM 82.0 °F 27.0 °F 13% 29.81 in 10.0 mi West 10.4 mph 20.7 mph N/A   Clear
2:53 PM 82.0 °F 30.0 °F 15% 29.79 in 10.0 mi Variable 6.9 mph 17.3 mph N/A   Clear
3:53 PM 82.9 °F 28.0 °F 14% 29.77 in 10.0 mi West 15.0 mph 23.0 mph N/A   Clear
4:53 PM 82.0 °F 27.0 °F 13% 29.76 in 10.0 mi West 10.4 mph 19.6 mph N/A   Clear
5:53 PM 80.1 °F 28.0 °F 15% 29.76 in 10.0 mi West 11.5 mph - N/A   Clear
6:53 PM 78.1 °F 24.1 °F 14% 29.78 in 10.0 mi West 9.2 mph - N/A   Clear
7:53 PM 72.0 °F 26.1 °F 18% 29.81 in 10.0 mi WNW 5.8 mph - N/A   Clear
8:53 PM 69.1 °F 28.0 °F 22% 29.82 in 10.0 mi WNW 3.5 mph - N/A   Clear
9:53 PM 62.1 °F 25.0 °F 24% 29.85 in 10.0 mi South 6.9 mph - N/A   Clear
11:53 PM 60.1 °F 24.1 °F 25% 29.82 in 10.0 mi WSW 5.8 mph - N/A   Clear